Location: Fort Worth, Tx
(32.7431°N, 97.3695°W)
Time: 01:32:35
(UTC-05:00)

ISS - Pass Details

Date: 23 November 2019
Orbit: 411 x 421 km, 51.6° (Epoch: 12 December)

Event Time Altitude Azimuth Distance (km) Brightness Sun altitude
Rises 19:19:50 0° 250° (WSW) 2,339 2.2 -11.7°
Reaches altitude 10° 19:22:08 10° 263° (W) 1,482 0.5 -12.1°
Maximum altitude 19:24:59 26° 323° (NW) 856 -2.0 -12.7°
Enters shadow 19:27:42 11° 20° (NNE) 1,431 -1.4 -13.3°
